IR1CX-3 Weather Reports


time (UTC)temp
C
wind
direction
speed
KPH
gust
KPH
rain 1hr
cm
rain 24hr
cm
rain mn
cm
humidity
%
barometer
mb
20260503160206 15 0.0 0.0 0.00 0.00 0.00 10 1019.5
20260503150945 16 0.0 0.0 0.00 0.00 0.00 10 1019.5
20260503150734 16 0.0 0.0 0.00 0.00 0.00 10 1019.5
20260503150629 16 0.0 0.0 0.00 0.00 0.00 10 1019.6
20260503150523 16 0.0 0.0 0.00 0.00 0.00 10 1019.6
20260503150418 16 0.0 0.0 0.00 0.00 0.00 10 1019.6
20260503150313 16 0.0 0.0 0.00 0.00 0.00 10 1019.7
20260503150207 16 0.0 0.0 0.00 0.00 0.00 10 1019.6
20260503140227 19 0.0 0.0 0.00 0.00 0.00 93 1020.4
20260503140121 19 0.0 0.0 0.00 0.00 0.00 93 1020.4
20260503131359 19 0.0 0.0 0.00 0.00 0.00 90 1020.9
20260503131148 19 0.0 0.0 0.00 0.00 0.00 90 1020.9
20260503131042 19 0.0 0.0 0.00 0.00 0.00 90 1020.9
20260503130937 19 0.0 0.0 0.00 0.00 0.00 90 1020.9
20260503130831 19 0.0 0.0 0.00 0.00 0.00 89 1020.8
20260503130726 19 0.0 0.0 0.00 0.00 0.00 89 1020.9
20260503130621 19 0.0 0.0 0.00 0.00 0.00 89 1020.8
20260503130515 19 0.0 0.0 0.00 0.00 0.00 88 1020.9
20260503130410 19 0.0 0.0 0.00 0.00 0.00 88 1020.9
20260503130304 19 0.0 0.0 0.00 0.00 0.00 88 1020.8
20260503120218 21 0.0 0.0 0.00 0.00 0.00 77 1021.3
20260503120112 21 0.0 0.0 0.00 0.00 0.00 77 1021.3
20260503110821 22 0.0 0.0 0.00 0.00 0.00 92 1021.4
20260503110533 22 0.0 0.0 0.00 0.00 0.00 92 1021.4
20260503110345 22 0.0 0.0 0.00 0.00 0.00 92 1021.3
20260503110159 22 0.0 0.0 0.00 0.00 0.00 93 1021.3
20260503100221 21 0.0 0.0 0.00 0.00 0.00 98 1021.8
20260503100116 21 0.0 0.0 0.00 0.00 0.00 98 1021.8
20260503090458 18 0.0 0.0 0.00 0.00 0.00 10 1021.7
20260503090353 18 0.0 0.0 0.00 0.00 0.00 10 1021.6
20260503090247 18 0.0 0.0 0.00 0.00 0.00 10 1021.7
20260503090142 18 0.0 0.0 0.00 0.00 0.00 10 1021.7
20260503081546 15 0.0 0.0 0.00 0.00 0.00 10 1021.4
20260503081441 15 0.0 0.0 0.00 0.00 0.00 10 1021.4
20260503081255 15 0.0 0.0 0.00 0.00 0.00 10 1021.4
20260503081150 15 0.0 0.0 0.00 0.00 0.00 10 1021.4
20260503081049 15 0.0 0.0 0.00 0.00 0.00 10 1021.4
20260503081004 15 0.0 0.0 0.00 0.00 0.00 10 1021.4
20260503080858 15 0.0 0.0 0.00 0.00 0.00 10 1021.4
20260503080758 15 0.0 0.0 0.00 0.00 0.00 10 1021.4
20260503080650 15 0.0 0.0 0.00 0.00 0.00 10 1021.3
20260503080419 15 0.0 0.0 0.00 0.00 0.00 10 1021.4
20260503080313 15 0.0 0.0 0.00 0.00 0.00 10 1021.4
20260503080208 15 0.0 0.0 0.00 0.00 0.00 10 1021.4
20260503080103 15 0.0 0.0 0.00 0.00 0.00 10 1021.4
20260503072449 12 0.0 0.0 0.00 0.00 0.00 10 1021.2
20260503070557 12 0.0 0.0 0.00 0.00 0.00 10 1021.0